Location: Frankfurt+am+Main
(50.1100°N, 8.4815°E)
Time: 09:36:48
(UTC+01:00)

Envisat - Visible Passes

Search period start: 18 November 2017 00:00
Search period end: 28 November 2017 00:00
Orbit: 764 x 766 km, 98.2° (Epoch: 17 November)

Date Brightness Start Highest point End Pass type
(mag) Time Alt. Az. Time Alt. Az. Time Alt. Az.
18 Nov 4.7 18:46:43 17° NNE 18:46:43 17° NNE 18:48:22 10° N visible
18 Nov 5.3 20:26:56 17° NNW 20:26:56 17° NNW 20:28:03 10° NNW visible
19 Nov 4.9 18:09:40 12° NNE 18:09:40 12° NNE 18:10:32 10° NNE visible
19 Nov 4.9 19:49:53 19° N 19:49:53 19° N 19:51:20 10° N visible
20 Nov 4.8 19:12:50 19° N 19:12:50 19° N 19:14:21 10° N visible
20 Nov 5.8 20:53:02 12° NNW 20:53:02 12° NNW 20:53:26 10° NNW visible
21 Nov 4.9 18:35:46 15° NNE 18:35:46 15° NNE 18:37:00 10° NNE visible
21 Nov 5.3 20:15:58 16° NNW 20:15:58 16° NNW 20:16:58 10° NNW visible
22 Nov 5.0 19:38:55 18° N 19:38:55 18° N 19:40:10 10° N visible
23 Nov 4.9 19:01:51 16° NNE 19:01:51 16° NNE 19:03:05 10° N visible
23 Nov 5.7 20:42:04 12° NNW 20:42:04 12° NNW 20:42:26 10° NNW visible
24 Nov 5.0 18:24:47 13° NNE 18:24:47 13° NNE 18:25:36 10° NNE visible
24 Nov 5.3 20:04:59 15° NNW 20:04:59 15° NNW 20:05:52 10° NNW visible
25 Nov 5.0 19:27:55 16° N 19:27:55 16° N 19:28:59 10° N visible
26 Nov 5.0 18:50:50 14° NNE 18:50:50 14° NNE 18:51:48 10° N visible
26 Nov 5.7 20:31:03 12° NNW 20:31:03 12° NNW 20:31:24 10° NNW visible
27 Nov 5.1 18:13:46 11° NNE 18:13:46 11° NNE 18:14:06 10° NNE visible
27 Nov 5.3 19:53:58 14° N 19:53:58 14° N 19:54:43 10° NNW visible
